DELTA 1 DEB, 7082

Orbit data source: Space-Track

DELTA 1 DEB, 7082 is space debris in SSO originally from a launch on Tue, 06 Nov 1973 UTC launched from the Air Force Western Test Range (AFWTR). Debris objects in space refer to the collection of defunct objects orbiting the Earth. Examples of debris include non-operational satellites, rocket bodies, and fragments generated from explosions, collisions, or faulty payload assembly.

Loading next visibility...
Identifier
7082, 1973-086CA
Orbit
SSO
Country
Flag of USUS
Related business
Manufacturer
Unknown
Mission
Spacecraft
Bus & Motor
Unknown
Mass
Unknown
Launch date (UTC)
1973-11-06 (53 years ago)
Launch vehicle
Unknown
Launch site
Air Force Western Test Range (AFWTR)
Object type
Payload
Rocket body
Debris
Shape & HBR
Unknown shape, 0.2 m
Radar Cross Section
Medium (>0.1 m² and <1 m²)

Expand to show TLE details & history
Last TLE update: 15 hours ago

TLE from 15 hours ago
0 DELTA 1 DEB
1 07082U 73086CA  26255.59783964  .00000308  00000-0  19820-2 0  9995
2 07082 101.7816 132.3495 0028211 107.7533   6.3838 12.61979652419796
Epoch: 2026-09-12T14:20Z
TLE epoch observation values (Epoch: 2026-09-12T14:20:53.344Z)
Latitude
63.35245°
Longitude
129.9537°
Altitude
1,403.652 km
Speed
7.174 km/s
True Right ascension
22h 27m 07s
True Declination
63° 13' 33"
Sunlit
Object was in daylight at epoch
Visualization orbit readout
Latitude
Unknown
Longitude
Unknown
Altitude
Unknown
Speed
Unknown
Apparent Right ascension
Unknown
Apparent Declination
Unknown
Sunlit
N/A
Visualization observer readout
Local Sidereal Time
22:15:27
Azimuth
Unknown
Elevation
Unknown
Doppler factor
Unknown
Orbital elements
Apogee altitude
1,434.295 km
Perigee altitude
1,390.339 km
Semi-major axis
7,790.454 km
Eccentricity
0.00282
Inclination
101.7816°
RAAN
132.3495°
Arg. of periapsis
107.7533°
True anomaly
6.41987°
Mean anomaly
6.3838°
Eccentric anomaly
6.40182°
Mean motion
3.15645 °/min
Orbital period
114.05 mins
BSTAR
0.001982
Loading maneuver chart data...
Computing Atmospheric mass density...

Documentation

Showing up to 5 results
|